User: anonymous   Login
Location: Biharia
(46.4333°N, 22.8000°E)
Time: 09:13:06
(UTC+00:00)
Language:

IRS-1C Rocket - Orbit

View from above orbital plane
View from above orbital plane
View from above satellite
View from above satellite

Ground track
Ground track

The orbit data is extracted from the following two-line orbital elements,

1 23753U 95072C   22019.53386727 -.00000012  00000-0  13986-4 0  9993
2 23753  98.9263  57.8099 0004673  87.4435 272.7279 14.26606400356591
Epoch (UTC): 19 January 2022 12:48:46
Eccentricity: 0.0004673
inclination: 98.9263°
perigee height: 800 km
apogee height: 806 km
right ascension of ascending node: 57.8099°
argument of perigee: 87.4435°
revolutions per day: 14.26606400
mean anomaly at epoch: 272.7279°
orbit number at epoch: 35659

The dashed part of the orbit path shows where the satellite is in the earth's shadow,  

DLR